Time,TemperatureF,DewpointF,PressureIn,WindDirection,WindDirectionDegrees,WindSpeedMPH,WindSpeedGustMPH,Humidity,HourlyPrecipIn,Conditions,Clouds,dailyrainin,SoftwareType,DateUTC
2013-05-03 00:02:00,33.4,32.1,30.31,NNE,17,0.0,6.0,95,0.01,,BKN080,0.00,VWS V14.01,2013-05-03 05:02:00,
2013-05-03 00:07:00,33.3,32.0,30.32,NNW,348,0.0,6.0,95,0.01,,BKN080,0.00,VWS V14.01,2013-05-03 05:07:00,
2013-05-03 00:12:00,33.3,32.0,30.31,NNE,21,0.0,6.0,95,0.01,,BKN080,0.00,VWS V14.01,2013-05-03 05:12:00,
2013-05-03 00:17:00,33.2,31.9,30.31,NNE,31,0.0,6.0,95,0.01,,BKN080,0.00,VWS V14.01,2013-05-03 05:17:00,
2013-05-03 00:22:00,33.2,31.9,30.31,North,5,0.0,6.0,95,0.01,,BKN080,0.00,VWS V14.01,2013-05-03 05:22:00,
2013-05-03 00:27:00,33.3,32.0,30.31,North,11,0.0,6.0,95,0.01,,BKN080,0.00,VWS V14.01,2013-05-03 05:27:00,
2013-05-03 00:32:00,33.2,31.9,30.31,North,355,0.0,6.0,95,0.01,,BKN080,0.00,VWS V14.01,2013-05-03 05:32:00,
2013-05-03 00:37:00,33.2,31.9,30.31,North,10,0.0,6.0,95,0.01,,BKN080,0.00,VWS V14.01,2013-05-03 05:37:00,
2013-05-03 00:42:00,33.2,32.2,30.31,North,360,0.0,6.0,96,0.01,,BKN080,0.00,VWS V14.01,2013-05-03 05:42:00,
2013-05-03 00:47:00,33.2,32.2,30.30,NNW,340,0.0,6.0,96,0.01,,BKN080,0.00,VWS V14.01,2013-05-03 05:47:00,
2013-05-03 00:52:00,33.1,32.1,30.30,North,9,0.0,6.0,96,0.01,,BKN080,0.00,VWS V14.01,2013-05-03 05:52:00,
2013-05-03 00:57:00,33.1,32.1,30.29,NNW,344,0.0,6.0,96,0.01,,BKN080,0.00,VWS V14.01,2013-05-03 05:57:00,
2013-05-03 01:02:00,33.1,32.1,30.30,North,350,0.0,0.0,96,0.00,,BKN080,0.00,VWS V14.01,2013-05-03 06:02:00,
2013-05-03 01:07:00,33.1,32.1,30.29,North,355,0.0,0.0,96,0.00,,BKN080,0.00,VWS V14.01,2013-05-03 06:07:00,
2013-05-03 01:12:00,33.0,32.0,30.29,NNE,14,0.0,0.0,96,0.00,,BKN080,0.00,VWS V14.01,2013-05-03 06:12:00,
2013-05-03 01:17:00,33.0,32.0,30.29,NNW,335,0.0,0.0,96,0.00,,BKN080,0.00,VWS V14.01,2013-05-03 06:17:00,
2013-05-03 01:22:00,33.0,32.0,30.29,NNW,346,0.0,0.0,96,0.00,,BKN080,0.00,VWS V14.01,2013-05-03 06:22:00,
2013-05-03 01:27:00,33.1,32.1,30.29,NE,53,0.0,0.0,96,0.00,,BKN080,0.00,VWS V14.01,2013-05-03 06:27:00,
2013-05-03 01:32:00,33.0,32.0,30.29,NE,43,0.0,0.0,96,0.00,,BKN080,0.00,VWS V14.01,2013-05-03 06:32:00,
2013-05-03 01:38:00,33.1,32.1,30.28,NNW,348,0.0,0.0,96,0.00,,BKN080,0.00,VWS V14.01,2013-05-03 06:38:00,
2013-05-03 01:43:00,33.1,32.1,30.28,NNW,341,0.0,0.0,96,0.00,,BKN080,0.00,VWS V14.01,2013-05-03 06:43:00,
2013-05-03 01:48:00,33.1,32.1,30.28,North,360,0.0,0.0,96,0.00,,BKN080,0.00,VWS V14.01,2013-05-03 06:48:00,
2013-05-03 01:53:00,33.1,32.1,30.27,NNW,338,0.0,0.0,96,0.00,,BKN080,0.00,VWS V14.01,2013-05-03 06:53:00,
2013-05-03 01:58:00,33.1,32.1,30.27,NW,310,0.0,0.0,96,0.00,,BKN080,0.00,VWS V14.01,2013-05-03 06:58:00,
2013-05-03 02:03:00,33.1,32.1,30.27,NNW,348,0.0,0.0,96,0.00,,BKN080,0.00,VWS V14.01,2013-05-03 07:03:00,
2013-05-03 02:08:00,33.1,32.1,30.27,NNW,348,0.0,0.0,96,0.00,,BKN080,0.00,VWS V14.01,2013-05-03 07:08:00,
2013-05-03 02:13:00,33.1,32.1,30.26,NNW,342,0.0,0.0,96,0.00,,BKN080,0.00,VWS V14.01,2013-05-03 07:13:00,
2013-05-03 02:18:00,33.1,32.1,30.26,North,5,0.0,0.0,96,0.00,,BKN080,0.00,VWS V14.01,2013-05-03 07:18:00,
2013-05-03 02:23:00,33.1,32.1,30.25,North,5,0.0,0.0,96,0.00,,BKN080,0.00,VWS V14.01,2013-05-03 07:23:00,
2013-05-03 02:28:00,33.1,32.1,30.25,NNW,336,0.0,0.0,96,0.00,,BKN080,0.00,VWS V14.01,2013-05-03 07:28:00,
2013-05-03 02:33:00,33.1,32.1,30.24,NNW,330,0.0,0.0,96,0.00,,BKN080,0.00,VWS V14.01,2013-05-03 07:33:00,
2013-05-03 02:38:00,33.1,32.1,30.24,NW,317,0.0,0.0,96,0.00,,BKN080,0.00,VWS V14.01,2013-05-03 07:38:00,
2013-05-03 02:43:00,33.0,32.0,30.23,NNE,23,0.0,0.0,96,0.00,,BKN080,0.00,VWS V14.01,2013-05-03 07:43:00,
2013-05-03 02:48:00,33.0,32.0,30.23,North,355,0.0,0.0,96,0.00,,BKN080,0.00,VWS V14.01,2013-05-03 07:48:00,
2013-05-03 02:53:00,33.0,32.0,30.22,NNW,344,0.0,0.0,96,0.00,,BKN080,0.00,VWS V14.01,2013-05-03 07:53:00,
2013-05-03 02:58:00,33.0,32.0,30.22,NW,320,0.0,0.0,96,0.00,,BKN080,0.00,VWS V14.01,2013-05-03 07:58:00,
2013-05-03 03:03:00,33.0,32.0,30.22,North,360,0.0,0.0,96,0.00,,BKN080,0.00,VWS V14.01,2013-05-03 08:03:00,
2013-05-03 03:08:00,33.0,32.0,30.21,North,5,0.0,0.0,96,0.00,,BKN080,0.00,VWS V14.01,2013-05-03 08:08:00,
2013-05-03 03:13:00,33.0,32.0,30.21,NW,325,0.0,0.0,96,0.00,,BKN080,0.00,VWS V14.01,2013-05-03 08:13:00,
2013-05-03 03:18:00,33.0,32.0,30.21,NNW,342,0.0,0.0,96,0.00,,BKN080,0.00,VWS V14.01,2013-05-03 08:18:00,
2013-05-03 03:23:00,33.0,32.0,30.21,NNE,17,0.0,0.0,96,0.00,,BKN080,0.00,VWS V14.01,2013-05-03 08:23:00,
2013-05-03 03:28:00,33.0,32.0,30.20,North,9,0.0,0.0,96,0.00,,BKN080,0.00,VWS V14.01,2013-05-03 08:28:00,
2013-05-03 03:33:00,33.0,32.0,30.20,NNW,342,0.0,0.0,96,0.00,,BKN080,0.00,VWS V14.01,2013-05-03 08:33:00,
2013-05-03 03:38:00,33.0,32.0,30.20,NNE,15,0.0,0.0,96,0.00,,BKN080,0.00,VWS V14.01,2013-05-03 08:38:00,
2013-05-03 03:43:00,33.0,32.0,30.20,North,9,0.0,0.0,96,0.00,,BKN080,0.00,VWS V14.01,2013-05-03 08:43:00,
2013-05-03 03:48:00,33.0,32.0,30.20,NNW,330,0.0,0.0,96,0.00,,BKN080,0.00,VWS V14.01,2013-05-03 08:48:00,
2013-05-03 03:53:00,33.0,32.0,30.20,NW,325,0.0,0.0,96,0.00,,BKN080,0.00,VWS V14.01,2013-05-03 08:53:00,
2013-05-03 03:59:00,33.1,32.1,30.20,NNE,19,0.0,0.0,96,0.00,,BKN080,0.00,VWS V14.01,2013-05-03 08:59:00,
2013-05-03 04:04:00,33.1,32.1,30.20,NNW,346,0.0,0.0,96,0.00,,BKN080,0.00,VWS V14.01,2013-05-03 09:04:00,
2013-05-03 04:09:00,33.2,32.2,30.20,NNW,333,0.0,0.0,96,0.00,,BKN080,0.00,VWS V14.01,2013-05-03 09:09:00,
2013-05-03 04:14:00,33.2,31.9,30.20,NE,39,0.0,0.0,95,0.00,,BKN080,0.00,VWS V14.01,2013-05-03 09:14:00,
2013-05-03 04:19:00,33.2,31.9,30.20,NNE,26,0.0,0.0,95,0.00,,BKN080,0.00,VWS V14.01,2013-05-03 09:19:00,
2013-05-03 04:24:00,33.2,31.9,30.21,NNW,337,0.0,0.0,95,0.00,,BKN080,0.00,VWS V14.01,2013-05-03 09:24:00,
2013-05-03 04:29:00,33.2,31.9,30.21,North,350,0.0,0.0,95,0.00,,BKN080,0.00,VWS V14.01,2013-05-03 09:29:00,
2013-05-03 04:34:00,33.2,31.9,30.20,NNW,338,0.0,0.0,95,0.00,,BKN080,0.00,VWS V14.01,2013-05-03 09:34:00,
2013-05-03 04:39:00,33.2,31.9,30.20,NNW,333,0.0,0.0,95,0.00,,BKN080,0.00,VWS V14.01,2013-05-03 09:39:00,
2013-05-03 04:44:00,33.2,31.9,30.20,NNE,28,0.0,0.0,95,0.00,,BKN080,0.00,VWS V14.01,2013-05-03 09:44:00,
2013-05-03 04:49:00,33.2,31.9,30.20,North,360,0.0,0.0,95,0.00,,BKN080,0.00,VWS V14.01,2013-05-03 09:49:00,
2013-05-03 04:54:00,33.1,31.8,30.20,WNW,298,0.0,0.0,95,0.00,,BKN080,0.00,VWS V14.01,2013-05-03 09:54:00,
2013-05-03 04:59:00,33.1,31.8,30.20,NE,34,0.0,0.0,95,0.00,,BKN080,0.00,VWS V14.01,2013-05-03 09:59:00,
2013-05-03 05:04:00,33.1,31.8,30.19,NNW,328,0.0,0.0,95,0.00,,BKN080,0.00,VWS V14.01,2013-05-03 10:04:00,
2013-05-03 05:09:00,33.1,31.8,30.19,NW,320,0.0,0.0,95,0.00,,BKN080,0.00,VWS V14.01,2013-05-03 10:09:00,
2013-05-03 05:14:00,33.1,31.6,30.19,NNW,344,0.0,0.0,94,0.00,,BKN080,0.00,VWS V14.01,2013-05-03 10:14:00,
2013-05-03 05:19:00,33.1,31.8,30.19,NNE,17,0.0,0.0,95,0.00,,BKN080,0.00,VWS V14.01,2013-05-03 10:19:00,
2013-05-03 05:24:00,33.1,31.6,30.18,NE,37,0.0,0.0,94,0.00,,BKN080,0.00,VWS V14.01,2013-05-03 10:24:00,
2013-05-03 05:29:00,33.0,31.5,30.18,North,355,0.0,0.0,94,0.00,,BKN080,0.00,VWS V14.01,2013-05-03 10:29:00,
2013-05-03 05:34:00,33.1,31.6,30.18,NNW,336,0.0,0.0,94,0.00,,BKN080,0.00,VWS V14.01,2013-05-03 10:34:00,
2013-05-03 05:39:00,33.1,31.6,30.18,NNE,19,0.0,0.0,94,0.00,,BKN080,0.00,VWS V14.01,2013-05-03 10:39:00,
2013-05-03 05:44:00,33.1,31.6,30.18,NNW,329,0.0,0.0,94,0.00,,BKN080,0.00,VWS V14.01,2013-05-03 10:44:00,
2013-05-03 05:50:00,33.1,31.6,30.18,North,11,0.0,0.0,94,0.00,,BKN080,0.00,VWS V14.01,2013-05-03 10:50:00,
2013-05-03 05:55:00,33.1,31.6,30.17,NE,46,0.0,0.0,94,0.00,,BKN080,0.00,VWS V14.01,2013-05-03 10:55:00,
2013-05-03 06:00:00,33.1,31.6,30.18,NW,325,0.0,0.0,94,0.00,,BKN080,0.00,VWS V14.01,2013-05-03 11:00:00,
2013-05-03 06:05:00,33.1,31.6,30.18,NNE,24,0.0,0.0,94,0.00,,BKN080,0.00,VWS V14.01,2013-05-03 11:05:00,
2013-05-03 06:10:00,33.1,31.8,30.18,NNW,327,0.0,0.0,95,0.00,,BKN080,0.00,VWS V14.01,2013-05-03 11:10:00,
2013-05-03 06:15:00,33.1,31.8,30.18,NNW,345,0.0,0.0,95,0.00,,BKN080,0.00,VWS V14.01,2013-05-03 11:15:00,
2013-05-03 06:20:00,33.1,31.8,30.19,NW,309,0.0,0.0,95,0.00,,BKN080,0.00,VWS V14.01,2013-05-03 11:20:00,
2013-05-03 06:25:00,33.1,31.8,30.18,NW,317,0.0,0.0,95,0.00,,BKN080,0.00,VWS V14.01,2013-05-03 11:25:00,
2013-05-03 06:30:00,33.0,31.7,30.19,NW,321,0.0,0.0,95,0.00,,BKN080,0.00,VWS V14.01,2013-05-03 11:30:00,
2013-05-03 06:35:00,33.0,31.7,30.19,North,5,0.0,0.0,95,0.00,,BKN080,0.00,VWS V14.01,2013-05-03 11:35:00,
2013-05-03 06:40:00,33.0,31.7,30.19,North,360,0.0,0.0,95,0.00,,BKN080,0.00,VWS V14.01,2013-05-03 11:40:00,
2013-05-03 06:45:00,33.0,31.7,30.19,NNW,346,0.0,0.0,95,0.00,,BKN080,0.00,VWS V14.01,2013-05-03 11:45:00,
2013-05-03 06:50:00,33.1,31.8,30.20,North,355,0.0,0.0,95,0.00,,BKN080,0.00,VWS V14.01,2013-05-03 11:50:00,
2013-05-03 06:55:00,33.0,31.7,30.20,NNW,344,0.0,0.0,95,0.00,,BKN080,0.00,VWS V14.01,2013-05-03 11:55:00,
2013-05-03 07:00:00,33.0,31.7,30.20,NNE,27,0.0,0.0,95,0.00,,BKN080,0.00,VWS V14.01,2013-05-03 12:00:00,
2013-05-03 07:05:00,33.0,31.7,30.19,NNE,26,0.0,0.0,95,0.00,,BKN080,0.00,VWS V14.01,2013-05-03 12:05:00,
2013-05-03 07:10:00,33.0,31.7,30.20,NNW,340,0.0,0.0,95,0.00,,BKN080,0.00,VWS V14.01,2013-05-03 12:10:00,
2013-05-03 07:15:00,33.0,31.7,30.20,NNE,17,0.0,0.0,95,0.00,,BKN080,0.00,VWS V14.01,2013-05-03 12:15:00,
2013-05-03 07:20:00,32.9,31.6,30.19,NNW,339,0.0,0.0,95,0.00,,BKN080,0.00,VWS V14.01,2013-05-03 12:20:00,
2013-05-03 07:25:00,33.0,31.7,30.20,North,355,0.0,0.0,95,0.00,,BKN080,0.00,VWS V14.01,2013-05-03 12:25:00,
2013-05-03 07:30:00,32.9,31.6,30.20,NW,324,0.0,0.0,95,0.00,,BKN080,0.00,VWS V14.01,2013-05-03 12:30:00,
2013-05-03 07:35:00,32.9,31.6,30.20,NNE,17,0.0,0.0,95,0.00,,BKN080,0.00,VWS V14.01,2013-05-03 12:35:00,
2013-05-03 07:40:00,32.9,31.9,30.20,NW,325,0.0,0.0,96,0.00,,BKN080,0.00,VWS V14.01,2013-05-03 12:40:00,
2013-05-03 07:45:00,32.9,31.9,30.19,NNE,33,0.0,0.0,96,0.00,,BKN080,0.00,VWS V14.01,2013-05-03 12:45:00,
2013-05-03 07:50:00,32.9,31.9,30.19,NNW,341,0.0,0.0,96,0.01,,BKN080,0.01,VWS V14.01,2013-05-03 12:50:00,
2013-05-03 07:55:00,33.0,32.0,30.19,NE,34,0.0,0.0,96,0.01,,BKN080,0.01,VWS V14.01,2013-05-03 12:55:00,
2013-05-03 08:00:00,33.0,32.0,30.19,North,355,0.0,0.0,96,0.01,,BKN080,0.01,VWS V14.01,2013-05-03 13:00:00,
2013-05-03 08:05:00,33.0,32.0,30.19,NW,325,0.0,0.0,96,0.01,,BKN080,0.01,VWS V14.01,2013-05-03 13:05:00,
2013-05-03 08:11:00,33.0,32.0,30.19,NNE,17,0.0,0.0,96,0.01,,BKN080,0.01,VWS V14.01,2013-05-03 13:11:00,
2013-05-03 08:16:00,33.1,32.1,30.18,North,350,0.0,0.0,96,0.01,,BKN080,0.01,VWS V14.01,2013-05-03 13:16:00,
2013-05-03 08:21:00,33.0,32.0,30.17,NNW,336,0.0,0.0,96,0.01,,BKN080,0.01,VWS V14.01,2013-05-03 13:21:00,
2013-05-03 08:26:00,33.0,32.0,30.16,NNE,28,0.0,0.0,96,0.01,,BKN080,0.01,VWS V14.01,2013-05-03 13:26:00,
2013-05-03 08:31:00,33.1,32.1,30.15,North,5,0.0,0.0,96,0.01,,BKN080,0.01,VWS V14.01,2013-05-03 13:31:00,
2013-05-03 08:36:00,33.2,32.2,30.15,NW,320,0.0,0.0,96,0.01,,BKN080,0.01,VWS V14.01,2013-05-03 13:36:00,
2013-05-03 08:41:00,33.1,32.1,30.15,NE,36,0.0,0.0,96,0.01,,BKN080,0.01,VWS V14.01,2013-05-03 13:41:00,
2013-05-03 08:46:00,33.1,32.1,30.15,North,5,0.0,0.0,96,0.01,,BKN080,0.01,VWS V14.01,2013-05-03 13:46:00,
2013-05-03 08:51:00,33.2,32.2,30.14,North,355,4.0,5.0,96,0.02,,BKN080,0.02,VWS V14.01,2013-05-03 13:51:00,
2013-05-03 08:56:00,33.3,32.3,30.15,WNW,288,1.0,9.0,96,0.02,,BKN080,0.02,VWS V14.01,2013-05-03 13:56:00,
2013-05-03 09:01:00,33.3,32.3,30.14,NNW,329,7.0,13.0,96,0.02,,BKN080,0.03,VWS V14.01,2013-05-03 14:01:00,
2013-05-03 09:06:00,33.3,32.3,30.14,NNE,15,6.0,13.0,96,0.02,,BKN080,0.03,VWS V14.01,2013-05-03 14:06:00,
2013-05-03 09:11:00,33.4,32.4,30.14,NNW,331,5.0,13.0,96,0.03,,BKN080,0.04,VWS V14.01,2013-05-03 14:11:00,
2013-05-03 09:16:00,33.5,32.5,30.14,NE,42,4.0,13.0,96,0.04,,BKN080,0.05,VWS V14.01,2013-05-03 14:16:00,
2013-05-03 09:21:00,33.5,32.5,30.13,North,355,7.0,13.0,96,0.04,,BKN080,0.05,VWS V14.01,2013-05-03 14:21:00,
2013-05-03 09:26:00,33.7,32.7,30.14,NNW,336,0.0,13.0,96,0.05,,BKN080,0.06,VWS V14.01,2013-05-03 14:26:00,
2013-05-03 09:31:00,33.8,32.8,30.14,NNE,15,3.0,13.0,96,0.06,,BKN080,0.07,VWS V14.01,2013-05-03 14:31:00,
2013-05-03 09:36:00,33.9,32.9,30.14,NNE,32,5.0,13.0,96,0.06,,BKN080,0.07,VWS V14.01,2013-05-03 14:36:00,
2013-05-03 09:41:00,33.9,32.9,30.14,NNW,348,1.0,13.0,96,0.07,,BKN080,0.08,VWS V14.01,2013-05-03 14:41:00,
2013-05-03 09:46:00,33.9,32.6,30.14,SSE,148,2.0,13.0,95,0.07,,BKN080,0.08,VWS V14.01,2013-05-03 14:46:00,
2013-05-03 09:51:00,33.9,32.6,30.14,North,5,2.0,13.0,95,0.08,,BKN080,0.09,VWS V14.01,2013-05-03 14:51:00,
2013-05-03 09:56:00,33.9,32.6,30.14,NNW,331,1.0,13.0,95,0.09,,BKN080,0.10,VWS V14.01,2013-05-03 14:56:00,
2013-05-03 10:01:00,34.1,33.1,30.13,NE,36,6.0,6.0,96,0.07,,BKN080,0.10,VWS V14.01,2013-05-03 15:01:00,
2013-05-03 10:06:00,34.2,32.9,30.13,NW,313,5.0,7.0,95,0.08,,BKN080,0.11,VWS V14.01,2013-05-03 15:06:00,
2013-05-03 10:11:00,34.1,32.8,30.13,North,355,3.0,10.0,95,0.08,,BKN080,0.11,VWS V14.01,2013-05-03 15:11:00,
2013-05-03 10:16:00,34.2,32.9,30.13,ENE,63,0.0,10.0,95,0.09,,BKN080,0.12,VWS V14.01,2013-05-03 15:16:00,
2013-05-03 10:21:00,34.2,32.9,30.13,NE,40,6.0,10.0,95,0.09,,BKN080,0.12,VWS V14.01,2013-05-03 15:21:00,
2013-05-03 10:26:00,34.2,32.9,30.12,North,5,3.0,11.0,95,0.10,,BKN080,0.13,VWS V14.01,2013-05-03 15:26:00,
2013-05-03 10:31:00,34.2,32.9,30.12,NNW,329,2.0,11.0,95,0.10,,BKN080,0.13,VWS V14.01,2013-05-03 15:31:00,
2013-05-03 10:36:00,34.2,32.9,30.12,North,355,5.0,11.0,95,0.11,,BKN080,0.14,VWS V14.01,2013-05-03 15:36:00,
2013-05-03 10:41:00,34.2,32.9,30.12,NW,310,4.0,11.0,95,0.12,,BKN080,0.15,VWS V14.01,2013-05-03 15:41:00,
2013-05-03 10:47:00,34.2,32.9,30.12,NW,312,3.0,11.0,95,0.12,,BKN080,0.15,VWS V14.01,2013-05-03 15:47:00,
2013-05-03 10:52:00,34.3,33.0,30.12,NNW,344,5.0,11.0,95,0.13,,BKN080,0.16,VWS V14.01,2013-05-03 15:52:00,
2013-05-03 10:57:00,34.1,32.8,30.12,North,355,1.0,11.0,95,0.14,,BKN080,0.17,VWS V14.01,2013-05-03 15:57:00,
2013-05-03 11:02:00,34.2,32.9,30.12,NW,320,3.0,6.0,95,0.08,,BKN080,0.18,VWS V14.01,2013-05-03 16:02:00,
2013-05-03 11:07:00,34.2,32.9,30.12,NNW,346,1.0,10.0,95,0.09,,BKN080,0.19,VWS V14.01,2013-05-03 16:07:00,
2013-05-03 11:12:00,34.2,32.9,30.13,NNW,344,3.0,10.0,95,0.09,,BKN080,0.19,VWS V14.01,2013-05-03 16:12:00,
2013-05-03 11:17:00,34.2,32.9,30.12,NNW,342,2.0,10.0,95,0.10,,BKN080,0.20,VWS V14.01,2013-05-03 16:17:00,
2013-05-03 11:22:00,34.1,32.8,30.13,WNW,293,6.0,10.0,95,0.11,,BKN080,0.21,VWS V14.01,2013-05-03 16:22:00,
2013-05-03 11:27:00,34.2,32.9,30.11,NNW,331,1.0,10.0,95,0.12,,BKN080,0.22,VWS V14.01,2013-05-03 16:27:00,
2013-05-03 11:32:00,34.2,32.9,30.11,NNW,343,3.0,10.0,95,0.12,,BKN080,0.22,VWS V14.01,2013-05-03 16:32:00,
2013-05-03 11:37:00,34.2,32.9,30.10,NNW,331,5.0,11.0,95,0.13,,BKN080,0.23,VWS V14.01,2013-05-03 16:37:00,
2013-05-03 11:42:00,34.2,32.9,30.09,NNE,15,3.0,11.0,95,0.14,,BKN080,0.24,VWS V14.01,2013-05-03 16:42:00,
2013-05-03 11:47:00,34.2,32.9,30.09,NNW,331,6.0,11.0,95,0.15,,BKN080,0.25,VWS V14.01,2013-05-03 16:47:00,
2013-05-03 11:52:00,34.3,33.0,30.09,NNW,348,11.0,11.0,95,0.15,,BKN080,0.25,VWS V14.01,2013-05-03 16:52:00,
2013-05-03 11:57:00,34.4,33.1,30.09,North,5,2.0,11.0,95,0.16,,BKN080,0.26,VWS V14.01,2013-05-03 16:57:00,
2013-05-03 12:02:00,34.4,33.1,30.10,NNE,28,10.0,10.0,95,0.09,,BKN080,0.27,VWS V14.01,2013-05-03 17:02:00,
2013-05-03 12:07:00,34.4,33.1,30.10,NW,308,2.0,10.0,95,0.10,,BKN080,0.28,VWS V14.01,2013-05-03 17:07:00,
2013-05-03 12:12:00,34.4,33.1,30.10,NNE,19,0.0,10.0,95,0.11,,BKN080,0.29,VWS V14.01,2013-05-03 17:12:00,
2013-05-03 12:17:00,34.4,33.1,30.09,North,9,5.0,10.0,95,0.12,,BKN080,0.30,VWS V14.01,2013-05-03 17:17:00,
2013-05-03 12:22:00,34.4,33.1,30.09,North,5,3.0,10.0,95,0.13,,BKN080,0.31,VWS V14.01,2013-05-03 17:22:00,
2013-05-03 12:27:00,34.4,33.1,30.09,North,360,1.0,12.0,95,0.14,,BKN080,0.32,VWS V14.01,2013-05-03 17:27:00,
2013-05-03 12:32:00,34.5,33.2,30.08,NNW,332,6.0,12.0,95,0.15,,BKN080,0.33,VWS V14.01,2013-05-03 17:32:00,
2013-05-03 12:37:00,34.6,33.3,30.09,North,360,2.0,12.0,95,0.16,,BKN080,0.34,VWS V14.01,2013-05-03 17:37:00,
2013-05-03 12:42:00,34.4,33.1,30.09,NNW,345,3.0,12.0,95,0.17,,BKN080,0.35,VWS V14.01,2013-05-03 17:42:00,
2013-05-03 12:47:00,34.4,33.1,30.09,NNW,337,2.0,12.0,95,0.18,,BKN080,0.36,VWS V14.01,2013-05-03 17:47:00,
2013-05-03 12:52:00,34.4,33.1,30.09,NNW,329,0.0,12.0,95,0.19,,BKN080,0.37,VWS V14.01,2013-05-03 17:52:00,
2013-05-03 12:57:00,34.5,33.2,30.09,NNE,24,0.0,12.0,95,0.20,,BKN080,0.38,VWS V14.01,2013-05-03 17:57:00,
2013-05-03 13:02:00,34.6,33.3,30.10,NW,307,5.0,5.0,95,0.12,,BKN080,0.39,VWS V14.01,2013-05-03 18:02:00,
2013-05-03 13:07:00,34.6,33.3,30.10,North,360,3.0,7.0,95,0.13,,BKN080,0.40,VWS V14.01,2013-05-03 18:07:00,
2013-05-03 13:12:00,34.6,33.3,30.10,NNW,340,3.0,7.0,95,0.14,,BKN080,0.41,VWS V14.01,2013-05-03 18:12:00,
2013-05-03 13:17:00,34.7,33.4,30.09,NNW,344,1.0,8.0,95,0.15,,BKN080,0.42,VWS V14.01,2013-05-03 18:17:00,
2013-05-03 13:22:00,34.7,33.4,30.09,North,350,4.0,8.0,95,0.16,,BKN080,0.43,VWS V14.01,2013-05-03 18:22:00,
2013-05-03 13:28:00,34.7,33.4,30.08,North,10,1.0,8.0,95,0.17,,BKN080,0.44,VWS V14.01,2013-05-03 18:28:00,
2013-05-03 13:33:00,34.7,33.7,30.08,NNW,331,5.0,10.0,96,0.18,,BKN080,0.45,VWS V14.01,2013-05-03 18:33:00,
2013-05-03 13:38:00,34.7,33.7,30.08,NNE,30,4.0,10.0,96,0.19,,BKN080,0.46,VWS V14.01,2013-05-03 18:38:00,
2013-05-03 13:43:00,34.8,33.8,30.07,North,355,3.0,10.0,96,0.19,,BKN080,0.46,VWS V14.01,2013-05-03 18:43:00,
2013-05-03 13:48:00,34.9,33.9,30.07,NE,42,3.0,10.0,96,0.20,,BKN080,0.47,VWS V14.01,2013-05-03 18:48:00,
2013-05-03 13:53:00,34.9,33.9,30.07,North,355,1.0,10.0,96,0.21,,BKN080,0.48,VWS V14.01,2013-05-03 18:53:00,
2013-05-03 13:58:00,35.1,34.1,30.07,NW,315,0.0,10.0,96,0.21,,BKN080,0.48,VWS V14.01,2013-05-03 18:58:00,
2013-05-03 14:03:00,35.0,33.7,30.07,North,355,3.0,8.0,95,0.10,,BKN080,0.49,VWS V14.01,2013-05-03 19:03:00,
2013-05-03 14:08:00,35.0,33.7,30.07,North,355,5.0,10.0,95,0.11,,BKN080,0.50,VWS V14.01,2013-05-03 19:08:00,
2013-05-03 14:13:00,35.0,33.7,30.07,NW,309,2.0,10.0,95,0.12,,BKN080,0.51,VWS V14.01,2013-05-03 19:13:00,
2013-05-03 14:18:00,35.1,33.8,30.07,NNE,18,1.0,10.0,95,0.13,,BKN080,0.52,VWS V14.01,2013-05-03 19:18:00,
2013-05-03 14:23:00,35.1,33.8,30.08,ENE,76,2.0,10.0,95,0.14,,BKN080,0.53,VWS V14.01,2013-05-03 19:23:00,
2013-05-03 14:28:00,35.1,33.8,30.07,WNW,292,2.0,10.0,95,0.15,,BKN080,0.54,VWS V14.01,2013-05-03 19:28:00,
2013-05-03 14:33:00,35.1,33.8,30.06,NNE,19,3.0,10.0,95,0.16,,BKN080,0.55,VWS V14.01,2013-05-03 19:33:00,
2013-05-03 14:38:00,35.0,33.7,30.05,NNW,348,7.0,11.0,95,0.17,,BKN080,0.56,VWS V14.01,2013-05-03 19:38:00,
2013-05-03 14:43:00,35.1,33.8,30.05,NNW,328,3.0,11.0,95,0.18,,BKN080,0.57,VWS V14.01,2013-05-03 19:43:00,
2013-05-03 14:48:00,35.2,34.2,30.06,NNW,339,9.0,11.0,96,0.19,,BKN080,0.58,VWS V14.01,2013-05-03 19:48:00,
2013-05-03 14:53:00,35.2,33.9,30.06,NW,323,3.0,11.0,95,0.19,,BKN080,0.58,VWS V14.01,2013-05-03 19:53:00,
2013-05-03 14:58:00,35.3,34.0,30.06,NW,318,5.0,11.0,95,0.20,,BKN080,0.59,VWS V14.01,2013-05-03 19:58:00,
2013-05-03 15:03:00,35.5,34.5,30.07,NNW,342,2.0,5.0,96,0.11,,BKN080,0.60,VWS V14.01,2013-05-03 20:03:00,
2013-05-03 15:08:00,35.5,34.5,30.07,North,355,3.0,6.0,96,0.11,,BKN080,0.60,VWS V14.01,2013-05-03 20:08:00,
2013-05-03 15:13:00,35.6,34.6,30.06,NNE,17,2.0,8.0,96,0.11,,BKN080,0.60,VWS V14.01,2013-05-03 20:13:00,
2013-05-03 15:18:00,35.5,34.5,30.06,NNW,345,3.0,8.0,96,0.12,,BKN080,0.61,VWS V14.01,2013-05-03 20:18:00,
2013-05-03 15:23:00,35.5,34.5,30.06,NNW,333,6.0,8.0,96,0.13,,BKN080,0.62,VWS V14.01,2013-05-03 20:23:00,
2013-05-03 15:28:00,35.6,34.6,30.06,NW,323,0.0,8.0,96,0.13,,BKN080,0.62,VWS V14.01,2013-05-03 20:28:00,
2013-05-03 15:33:00,35.7,34.7,30.06,NNE,13,2.0,8.0,96,0.14,,BKN080,0.63,VWS V14.01,2013-05-03 20:33:00,
2013-05-03 15:38:00,35.7,34.7,30.07,NNE,15,1.0,8.0,96,0.15,,BKN080,0.64,VWS V14.01,2013-05-03 20:38:00,
2013-05-03 15:43:00,35.7,34.4,30.06,NNW,344,0.0,8.0,95,0.15,,BKN080,0.64,VWS V14.01,2013-05-03 20:43:00,
2013-05-03 15:48:00,35.8,34.8,30.06,North,5,1.0,8.0,96,0.16,,BKN080,0.65,VWS V14.01,2013-05-03 20:48:00,
2013-05-03 15:53:00,36.1,35.1,30.06,NNE,32,3.0,8.0,96,0.17,,BKN080,0.66,VWS V14.01,2013-05-03 20:53:00,
2013-05-03 15:59:00,36.1,35.1,30.05,NNW,346,4.0,8.0,96,0.17,,BKN080,0.66,VWS V14.01,2013-05-03 20:59:00,
2013-05-03 16:04:00,36.1,35.1,30.06,NW,313,3.0,8.0,96,0.08,,BKN080,0.67,VWS V14.01,2013-05-03 21:04:00,
2013-05-03 16:09:00,36.1,35.1,30.07,NNE,15,4.0,8.0,96,0.08,,BKN080,0.67,VWS V14.01,2013-05-03 21:09:00,
2013-05-03 16:14:00,36.0,34.7,30.06,North,355,4.0,9.0,95,0.09,,BKN080,0.68,VWS V14.01,2013-05-03 21:14:00,
2013-05-03 16:19:00,35.9,34.6,30.05,NNE,24,2.0,10.0,95,0.09,,BKN080,0.68,VWS V14.01,2013-05-03 21:19:00,
2013-05-03 16:24:00,36.1,35.1,30.04,North,10,3.0,10.0,96,0.10,,BKN080,0.69,VWS V14.01,2013-05-03 21:24:00,
2013-05-03 16:29:00,36.1,35.1,30.04,North,355,4.0,10.0,96,0.10,,BKN080,0.69,VWS V14.01,2013-05-03 21:29:00,
2013-05-03 16:34:00,36.0,35.0,30.04,North,355,3.0,10.0,96,0.11,,BKN080,0.70,VWS V14.01,2013-05-03 21:34:00,
2013-05-03 16:39:00,36.1,35.1,30.04,NNE,12,3.0,10.0,96,0.11,,BKN080,0.70,VWS V14.01,2013-05-03 21:39:00,
2013-05-03 16:44:00,36.1,35.1,30.03,North,11,5.0,10.0,96,0.12,,BKN080,0.71,VWS V14.01,2013-05-03 21:44:00,
2013-05-03 16:49:00,36.1,35.1,30.02,North,5,5.0,10.0,96,0.13,,BKN080,0.72,VWS V14.01,2013-05-03 21:49:00,
2013-05-03 16:54:00,36.0,35.0,30.01,North,5,9.0,14.0,96,0.14,,BKN080,0.73,VWS V14.01,2013-05-03 21:54:00,
2013-05-03 16:59:00,36.0,35.0,30.01,NNW,341,0.0,14.0,96,0.15,,BKN080,0.74,VWS V14.01,2013-05-03 21:59:00,
2013-05-03 17:04:00,35.9,34.9,30.01,North,10,5.0,8.0,96,0.08,,BKN080,0.74,VWS V14.01,2013-05-03 22:04:00,
2013-05-03 17:09:00,35.9,34.9,30.01,NNW,331,4.0,9.0,96,0.08,,BKN080,0.74,VWS V14.01,2013-05-03 22:09:00,
2013-05-03 17:14:00,35.9,34.9,30.01,NNW,348,5.0,12.0,96,0.09,,BKN080,0.75,VWS V14.01,2013-05-03 22:14:00,
2013-05-03 17:19:00,35.7,34.7,30.01,North,5,5.0,12.0,96,0.10,,BKN080,0.76,VWS V14.01,2013-05-03 22:19:00,
2013-05-03 17:24:00,35.7,34.7,30.01,NNE,21,4.0,12.0,96,0.10,,BKN080,0.76,VWS V14.01,2013-05-03 22:24:00,
2013-05-03 17:29:00,35.7,34.7,30.01,NNE,15,4.0,12.0,96,0.10,,BKN080,0.76,VWS V14.01,2013-05-03 22:29:00,
2013-05-03 17:34:00,35.9,34.9,30.02,NNE,18,6.0,12.0,96,0.11,,BKN080,0.77,VWS V14.01,2013-05-03 22:34:00,
2013-05-03 17:39:00,35.9,34.9,30.03,NNW,336,2.0,12.0,96,0.11,,BKN080,0.77,VWS V14.01,2013-05-03 22:39:00,
2013-05-03 17:44:00,36.1,35.1,30.03,NNW,346,7.0,12.0,96,0.12,,BKN080,0.78,VWS V14.01,2013-05-03 22:44:00,
2013-05-03 17:49:00,36.1,35.1,30.04,NNW,346,4.0,12.0,96,0.12,,BKN080,0.78,VWS V14.01,2013-05-03 22:49:00,
2013-05-03 17:54:00,36.0,35.0,30.03,North,5,5.0,12.0,96,0.12,,BKN080,0.78,VWS V14.01,2013-05-03 22:54:00,
2013-05-03 18:00:00,36.1,35.1,30.04,NNW,346,4.0,12.0,96,0.13,,BKN080,0.79,VWS V14.01,2013-05-03 23:00:00,
2013-05-03 18:05:00,36.2,35.2,30.04,NNW,340,2.0,9.0,96,0.05,,BKN080,0.79,VWS V14.01,2013-05-03 23:05:00,
2013-05-03 18:10:00,36.2,35.2,30.04,NNW,342,2.0,9.0,96,0.05,,BKN080,0.79,VWS V14.01,2013-05-03 23:10:00,
2013-05-03 18:15:00,36.2,35.2,30.03,North,11,4.0,9.0,96,0.06,,BKN080,0.80,VWS V14.01,2013-05-03 23:15:00,
2013-05-03 18:20:00,36.3,35.3,30.03,NNW,344,8.0,9.0,96,0.06,,BKN080,0.80,VWS V14.01,2013-05-03 23:20:00,
2013-05-03 18:25:00,36.3,35.3,30.03,NE,36,5.0,10.0,96,0.06,,BKN080,0.80,VWS V14.01,2013-05-03 23:25:00,
2013-05-03 18:30:00,36.3,35.3,30.03,NNW,339,2.0,10.0,96,0.06,,BKN080,0.80,VWS V14.01,2013-05-03 23:30:00,
2013-05-03 18:35:00,36.4,35.4,30.02,NE,36,1.0,10.0,96,0.07,,BKN080,0.81,VWS V14.01,2013-05-03 23:35:00,
2013-05-03 18:40:00,36.4,35.4,30.02,North,5,2.0,10.0,96,0.07,,BKN080,0.81,VWS V14.01,2013-05-03 23:40:00,
2013-05-03 18:45:00,36.3,35.3,30.02,NNW,348,4.0,10.0,96,0.07,,BKN080,0.81,VWS V14.01,2013-05-03 23:45:00,
2013-05-03 18:50:00,36.3,35.3,30.02,NNE,21,4.0,10.0,96,0.08,,BKN080,0.82,VWS V14.01,2013-05-03 23:50:00,
2013-05-03 18:55:00,36.2,35.2,30.02,North,350,5.0,10.0,96,0.08,,BKN080,0.82,VWS V14.01,2013-05-03 23:55:00,
2013-05-03 19:00:00,36.2,35.2,30.02,NNW,333,2.0,2.0,96,0.03,,BKN080,0.82,VWS V14.01,2013-05-04 00:00:00,
2013-05-03 19:05:00,36.2,35.2,30.02,NNE,18,6.0,8.0,96,0.04,,BKN080,0.83,VWS V14.01,2013-05-04 00:05:00,
2013-05-03 19:10:00,36.2,35.2,30.02,NNE,32,4.0,8.0,96,0.04,,BKN080,0.83,VWS V14.01,2013-05-04 00:10:00,
2013-05-03 19:15:00,36.2,35.2,30.02,NNW,333,7.0,9.0,96,0.04,,BKN080,0.83,VWS V14.01,2013-05-04 00:15:00,
2013-05-03 19:20:00,36.2,35.2,30.02,ENE,61,1.0,9.0,96,0.05,,BKN080,0.84,VWS V14.01,2013-05-04 00:20:00,
2013-05-03 19:25:00,36.2,35.2,30.02,North,360,6.0,9.0,96,0.05,,BKN080,0.84,VWS V14.01,2013-05-04 00:25:00,
2013-05-03 19:30:00,36.2,35.2,30.01,NE,34,3.0,11.0,96,0.05,,BKN080,0.84,VWS V14.01,2013-05-04 00:30:00,
2013-05-03 19:35:00,36.2,35.2,30.01,NW,321,3.0,11.0,96,0.06,,BKN080,0.85,VWS V14.01,2013-05-04 00:35:00,
2013-05-03 19:40:00,36.2,35.2,30.01,NNE,13,3.0,11.0,96,0.06,,BKN080,0.85,VWS V14.01,2013-05-04 00:40:00,
2013-05-03 19:46:00,36.2,35.2,30.01,North,355,6.0,11.0,96,0.07,,BKN080,0.86,VWS V14.01,2013-05-04 00:46:00,
2013-05-03 19:51:00,36.2,35.2,30.01,NNW,338,3.0,12.0,96,0.07,,BKN080,0.86,VWS V14.01,2013-05-04 00:51:00,
2013-05-03 19:56:00,36.2,35.2,30.01,North,5,2.0,12.0,96,0.07,,BKN080,0.86,VWS V14.01,2013-05-04 00:56:00,
2013-05-03 20:01:00,36.1,35.1,30.02,NNE,17,4.0,5.0,96,0.05,,BKN080,0.87,VWS V14.01,2013-05-04 01:01:00,
2013-05-03 20:06:00,36.1,35.1,30.02,NNW,329,4.0,8.0,96,0.05,,BKN080,0.87,VWS V14.01,2013-05-04 01:06:00,
2013-05-03 20:11:00,36.2,35.2,30.02,NNW,344,4.0,9.0,96,0.06,,BKN080,0.88,VWS V14.01,2013-05-04 01:11:00,
2013-05-03 20:16:00,36.1,35.1,30.02,NNE,14,5.0,9.0,96,0.06,,BKN080,0.88,VWS V14.01,2013-05-04 01:16:00,
2013-05-03 20:21:00,36.2,35.2,30.02,NNW,347,3.0,9.0,96,0.07,,BKN080,0.89,VWS V14.01,2013-05-04 01:21:00,
2013-05-03 20:26:00,36.2,35.2,30.02,NNW,345,1.0,9.0,96,0.07,,BKN080,0.89,VWS V14.01,2013-05-04 01:26:00,
2013-05-03 20:31:00,36.2,35.2,30.03,North,5,5.0,9.0,96,0.08,,BKN080,0.90,VWS V14.01,2013-05-04 01:31:00,
2013-05-03 20:36:00,36.1,35.1,30.03,NNE,14,0.0,9.0,96,0.08,,BKN080,0.90,VWS V14.01,2013-05-04 01:36:00,
2013-05-03 20:41:00,36.1,35.1,30.02,North,360,3.0,9.0,96,0.09,,BKN080,0.91,VWS V14.01,2013-05-04 01:41:00,
2013-05-03 20:46:00,36.2,35.2,30.02,NW,322,4.0,9.0,96,0.10,,BKN080,0.92,VWS V14.01,2013-05-04 01:46:00,
2013-05-03 20:51:00,36.1,35.1,30.02,NNW,337,8.0,9.0,96,0.10,,BKN080,0.92,VWS V14.01,2013-05-04 01:51:00,
2013-05-03 20:56:00,36.1,35.1,30.02,WNW,296,3.0,9.0,96,0.11,,BKN080,0.93,VWS V14.01,2013-05-04 01:56:00,
2013-05-03 21:01:00,36.2,35.2,30.02,NNW,338,5.0,7.0,96,0.06,,BKN080,0.93,VWS V14.01,2013-05-04 02:01:00,
2013-05-03 21:06:00,36.2,35.2,30.02,NNW,346,2.0,7.0,96,0.06,,BKN080,0.93,VWS V14.01,2013-05-04 02:06:00,
2013-05-03 21:11:00,36.2,35.2,30.02,West,271,3.0,8.0,96,0.07,,BKN080,0.94,VWS V14.01,2013-05-04 02:11:00,
2013-05-03 21:16:00,36.2,35.2,30.02,North,360,3.0,8.0,96,0.07,,BKN080,0.94,VWS V14.01,2013-05-04 02:16:00,
2013-05-03 21:21:00,36.2,35.2,30.02,NNW,343,5.0,8.0,96,0.08,,BKN080,0.95,VWS V14.01,2013-05-04 02:21:00,
2013-05-03 21:26:00,36.2,35.2,30.01,North,355,6.0,8.0,96,0.08,,BKN080,0.95,VWS V14.01,2013-05-04 02:26:00,
2013-05-03 21:32:00,36.2,35.2,30.01,North,355,1.0,8.0,96,0.09,,BKN080,0.96,VWS V14.01,2013-05-04 02:32:00,
2013-05-03 21:37:00,36.2,35.2,30.02,NNE,13,5.0,9.0,96,0.09,,BKN080,0.96,VWS V14.01,2013-05-04 02:37:00,
2013-05-03 21:42:00,36.2,35.2,30.02,North,360,3.0,9.0,96,0.09,,BKN080,0.96,VWS V14.01,2013-05-04 02:42:00,
2013-05-03 21:47:00,36.2,35.2,30.01,NNW,346,4.0,9.0,96,0.10,,BKN080,0.97,VWS V14.01,2013-05-04 02:47:00,
2013-05-03 21:52:00,36.3,35.5,30.01,North,5,3.0,9.0,97,0.10,,BKN080,0.97,VWS V14.01,2013-05-04 02:52:00,
2013-05-03 21:57:00,36.2,35.2,30.01,NW,319,4.0,11.0,96,0.10,,BKN080,0.97,VWS V14.01,2013-05-04 02:57:00,
2013-05-03 22:02:00,36.2,35.4,30.01,North,11,1.0,7.0,97,0.04,,BKN080,0.97,VWS V14.01,2013-05-04 03:02:00,
2013-05-03 22:07:00,36.2,35.4,30.02,NNW,333,4.0,7.0,97,0.04,,BKN080,0.97,VWS V14.01,2013-05-04 03:07:00,
2013-05-03 22:12:00,36.3,35.5,30.02,NNW,337,2.0,7.0,97,0.05,,BKN080,0.98,VWS V14.01,2013-05-04 03:12:00,
2013-05-03 22:17:00,36.3,35.5,30.01,NNW,348,3.0,8.0,97,0.05,,BKN080,0.98,VWS V14.01,2013-05-04 03:17:00,
2013-05-03 22:22:00,36.3,35.5,30.01,NW,319,5.0,12.0,97,0.05,,BKN080,0.98,VWS V14.01,2013-05-04 03:22:00,
2013-05-03 22:27:00,36.3,35.5,30.00,NNW,337,7.0,12.0,97,0.05,,BKN080,0.98,VWS V14.01,2013-05-04 03:27:00,
2013-05-03 22:32:00,36.2,35.4,30.01,NNE,15,3.0,12.0,97,0.06,,BKN080,0.99,VWS V14.01,2013-05-04 03:32:00,
2013-05-03 22:37:00,36.2,35.4,30.02,NW,325,2.0,12.0,97,0.07,,BKN080,1.00,VWS V14.01,2013-05-04 03:37:00,
2013-05-03 22:42:00,36.3,35.5,30.02,NE,38,0.0,12.0,97,0.08,,BKN080,1.01,VWS V14.01,2013-05-04 03:42:00,
2013-05-03 22:47:00,36.3,35.5,30.03,NNE,26,3.0,12.0,97,0.09,,BKN080,1.02,VWS V14.01,2013-05-04 03:47:00,
2013-05-03 22:52:00,36.4,35.6,30.03,North,5,0.0,12.0,97,0.11,,BKN080,1.04,VWS V14.01,2013-05-04 03:52:00,
2013-05-03 22:57:00,36.4,35.6,30.01,NNW,348,5.0,12.0,97,0.13,,BKN080,1.06,VWS V14.01,2013-05-04 03:57:00,
2013-05-03 23:01:00,36.4,35.6,30.00,NW,323,9.0,9.0,97,0.11,,BKN080,1.08,VWS V14.01,2013-05-04 04:01:00,
2013-05-03 23:02:00,36.4,35.6,29.99,NNW,340,9.0,11.0,97,0.11,,BKN080,1.08,VWS V14.01,2013-05-04 04:02:00,
2013-05-03 23:07:00,36.4,35.6,29.98,NW,313,6.0,11.0,97,0.13,,BKN080,1.10,VWS V14.01,2013-05-04 04:07:00,
2013-05-03 23:12:00,36.4,35.6,29.98,NNW,329,7.0,11.0,97,0.13,,BKN080,1.10,VWS V14.01,2013-05-04 04:12:00,
2013-05-03 23:17:00,36.3,35.5,29.98,NW,323,8.0,11.0,97,0.14,,BKN080,1.11,VWS V14.01,2013-05-04 04:17:00,
2013-05-03 23:22:00,36.3,35.5,29.99,NNW,345,2.0,11.0,97,0.14,,BKN080,1.11,VWS V14.01,2013-05-04 04:22:00,
2013-05-03 23:27:00,36.4,35.6,30.00,North,351,4.0,11.0,97,0.14,,BKN080,1.11,VWS V14.01,2013-05-04 04:27:00,
2013-05-03 23:32:00,36.4,35.6,29.99,NNW,348,4.0,11.0,97,0.15,,BKN080,1.12,VWS V14.01,2013-05-04 04:32:00,
2013-05-03 23:37:00,36.5,35.7,29.99,NW,317,2.0,11.0,97,0.16,,BKN080,1.13,VWS V14.01,2013-05-04 04:37:00,
2013-05-03 23:42:00,36.5,35.7,30.00,NE,40,1.0,11.0,97,0.18,,BKN080,1.15,VWS V14.01,2013-05-04 04:42:00,
2013-05-03 23:47:00,36.6,35.8,29.99,NE,34,5.0,11.0,97,0.19,,BKN080,1.16,VWS V14.01,2013-05-04 04:47:00,
2013-05-03 23:52:00,36.5,35.7,29.98,NNW,344,6.0,11.0,97,0.21,,BKN080,1.18,VWS V14.01,2013-05-04 04:52:00,
2013-05-03 23:57:00,36.5,35.7,29.98,NE,36,0.0,11.0,97,0.24,,BKN080,1.21,VWS V14.01,2013-05-04 04:57:00,